Location: Góry Miechowskie
(50.3599°N, 20.1803°E)
Time: 03:17:16
(UTC+00:00)

Cosmos 2228 - Pass Details

Date: 27 September 2024
Orbit: 574 x 600 km, 82.5° (Epoch: 11 October)

Event Time Altitude Azimuth Distance (km) Brightness Sun altitude
Exits shadow 00:52:37 15° 355° (N) 1,642 5.6 -32.8°
Drops below altitude 10° 00:53:29 10° 360° (N) 1,970 6.1 -32.7°
Sets 00:55:45 0° 6° (N) 2,867 7.2 -32.5°
